Location: Auckland
(36.8670°S, 174.7670°E)
Time: 04:35:04
(UTC+12:00)

Vanguard 2 - All Passes

Search period start: 18 July 2019 00:00
Search period end: 28 July 2019 00:00
Orbit: 553 x 2938 km, 32.9° (Epoch: 16 July)

Date Brightness Start Highest point End Pass type
(mag) Time Alt. Az. Time Alt. Az. Time Alt. Az.
18 Jul - 11:22:07 10° NW 11:28:33 41° NNE 11:38:54 10° E daylight
18 Jul - 13:29:00 10° WNW 13:37:52 72° N 13:52:41 10° E daylight
18 Jul - 15:37:25 10° W 15:49:03 69° NNW 16:06:14 10° ENE daylight
18 Jul - 17:47:18 10° W 18:00:51 45° NNW 18:17:15 10° NE visible
18 Jul - 20:01:25 10° W 20:11:53 20° NW 20:22:36 10° N visible
19 Jul - 09:35:38 10° NNE 09:38:49 14° NE 09:42:44 10° ENE daylight
19 Jul - 11:39:36 10° NW 11:46:14 51° NNE 11:57:18 10° E daylight
19 Jul - 13:46:53 10° W 13:55:56 74° N 14:11:00 10° E daylight
19 Jul - 15:55:27 10° W 16:07:11 63° NNW 16:24:11 10° ENE daylight
19 Jul - 18:05:46 10° W 18:18:46 37° NNW 18:34:13 10° NNE visible
19 Jul - 20:22:59 10° WNW 20:29:35 13° NW 20:36:16 10° NNW visible
20 Jul - 09:51:53 10° N 09:56:11 21° NE 10:02:04 10° E daylight
20 Jul - 11:57:15 10° WNW 12:04:04 59° NNE 12:15:38 10° E daylight
20 Jul - 14:04:49 10° W 14:14:03 73° N 14:29:17 10° ENE daylight
20 Jul - 16:13:32 10° W 16:25:16 55° NNW 16:41:56 10° NE daylight
20 Jul - 18:24:33 10° W 18:36:39 30° NW 18:50:43 10° NNE visible
21 Jul - 10:08:49 10° NNW 10:13:39 30° NE 10:20:48 10° E daylight
21 Jul - 12:15:01 10° WNW 12:21:59 66° NNE 12:33:57 10° E daylight
21 Jul - 14:22:46 10° W 14:32:09 69° N 14:47:28 10° ENE daylight
21 Jul - 16:31:42 10° W 16:43:18 48° NNW 16:59:25 10° NE daylight
21 Jul - 18:43:50 10° W 18:54:31 23° NW 19:06:35 10° N visible
22 Jul - 10:26:08 10° NW 10:31:15 39° NNE 10:39:16 10° E daylight
22 Jul - 12:32:51 10° WNW 12:39:58 70° N 12:52:14 10° E daylight
22 Jul - 14:40:45 10° W 14:50:15 63° NNW 15:05:32 10° ENE daylight
22 Jul - 16:50:02 10° W 17:01:20 39° NNW 17:16:34 10° NNE daylight
22 Jul - 19:04:11 10° WNW 19:12:23 16° NW 19:21:20 10° N visible
23 Jul - 08:39:44 10° NNE 08:41:43 12° NE 08:43:59 10° ENE daylight
23 Jul - 10:43:39 10° NW 10:48:59 48° NNE 10:57:36 10° E daylight
23 Jul - 12:50:43 10° W 12:58:00 70° N 13:10:31 10° E daylight
23 Jul - 14:58:45 10° W 15:08:19 56° NNW 15:23:24 10° NE daylight
23 Jul - 17:08:34 10° W 17:19:20 32° NNW 17:33:19 10° NNE daylight
24 Jul - 08:55:52 10° N 08:59:12 19° NE 09:03:25 10° E daylight
24 Jul - 11:01:20 10° WNW 11:06:49 57° NNE 11:15:52 10° E daylight
24 Jul - 13:08:37 10° W 13:16:03 68° N 13:28:44 10° ENE daylight
24 Jul - 15:16:50 10° W 15:26:23 48° NNW 15:41:02 10° NE daylight
24 Jul - 17:27:33 10° W 17:37:19 24° NNW 17:49:31 10° NNE daylight
25 Jul - 09:12:51 10° NNW 09:16:46 27° NNE 09:22:04 10° E daylight
25 Jul - 11:19:06 10° WNW 11:24:44 63° N 11:34:07 10° E daylight
25 Jul - 13:26:33 10° W 13:34:05 63° N 13:46:51 10° ENE daylight
25 Jul - 15:35:03 10° W 15:44:27 40° NNW 15:58:22 10° NE daylight
25 Jul - 17:47:17 10° WNW 17:55:19 18° NW 18:04:48 10° N visible
26 Jul - 09:30:13 10° NW 09:34:26 36° NNE 09:40:27 10° E daylight
26 Jul - 11:36:56 10° WNW 11:42:41 66° N 11:52:20 10° E daylight
26 Jul - 13:44:31 10° W 13:52:08 56° NNW 14:04:49 10° ENE daylight
26 Jul - 15:53:28 10° W 16:02:30 32° NNW 16:15:19 10° NNE daylight
26 Jul - 18:09:13 10° NW 18:13:21 12° NW 18:17:48 10° NNW visible
27 Jul - 07:43:32 10° NNE 07:44:53 11° NE 07:46:19 10° NE daylight
27 Jul - 09:47:48 10° NW 09:52:12 45° NNE 09:58:42 10° E daylight
27 Jul - 11:54:49 10° W 12:00:40 65° N 12:10:32 10° ENE daylight
27 Jul - 14:02:34 10° W 14:10:11 47° NNW 14:22:34 10° NE daylight
27 Jul - 16:12:14 10° WNW 16:20:34 25° NNW 16:31:45 10° NNE daylight
